[[{"header":{"parameterUnit":"m.s-1","parameterCategory":1,"la1":30.2991,"la2":30.254,"lo1":-89.0895,"lo2":-89.0444,"dy":0.0017,"dx":0.0017,"nx":28,"ny":28,"refTime":"2025-11-06T09:00:00:Z","depth":0,"parameterNumber":2,"parameterNumberName":"U-component_of_WINDS"},"data":[0,0,0,0,0,0,0,0,0,0,0,0,0,0,0,0,0,0,0,0,0,0,0,0,0,0,0,0,0,0,0,0,0,0,0,0,0,0,0,0,0,0,0,0,0,0,0,0,0,0,0,0,0,0,0,0,0,0,-0.5941,-0.5941,0,-0.598,-0.598,-0.5981,-0.5966,-0.5965,-0.5964,-0.5963,-0.6005,-0.6007,-0.6009,0,0,0,0,0,0,0,0,0,0,0,0,0,-0.5854,-0.5856,-0.5941,-0.5941,-0.5942,-0.598,-0.598,-0.5981,-0.5966,-0.5965,-0.5963,-0.5962,-0.6004,-0.6006,-0.6009,0,0,0,0,0,0,0,0,0,0,0,0,0,-0.5892,-0.5856,-0.5941,-0.5939,-0.5939,-0.598,-0.598,-0.5981,-0.5966,-0.5965,-0.5963,-0.5962,-0.6003,-0.6006,-0.6009,-0.6055,0,0,-0.6018,-0.6019,0,0,0,0,0,0,0,0,-0.589,-0.5895,-0.5939,-0.5939,-0.5939,-0.5966,-0.5965,-0.6006,-0.5966,-0.5956,-0.5963,-0.5961,-0.5993,-0.5997,-0.6007,-0.6057,-0.6059,-0.6018,-0.602,-0.6021,-0.6022,0,0,0,0,0,0,0,-0.5887,-0.5894,-0.5956,-0.5939,-0.594,-0.5936,-0.594,-0.5973,-0.5982,-0.5957,-0.5955,-0.596,-0.5993,-0.6005,-0.6008,-0.6059,-0.6018,-0.6021,-0.6023,-0.6024,-0.6148,-0.6149,0,0,0,0,0,0,-0.5884,-0.5892,-0.5955,-0.5958,-0.5911,-0.5939,-0.5943,-0.5959,-0.5981,-0.5983,-0.5961,-0.5959,-0.6,-0.6005,-0.601,-0.6065,-0.6021,-0.6024,-0.6026,-0.6146,-0.6148,-0.615,0,0,0,0,0,0,-0.5883,-0.589,-0.5954,-0.5924,-0.5932,-0.5942,-0.596,-0.5961,-0.5972,-0.5985,-0.5987,-0.5971,-0.5999,-0.6005,-0.6043,-0.6066,-0.6026,-0.6028,-0.6144,-0.6147,-0.6149,-0.6176,0,0,0,0,0,0,-0.588,-0.589,-0.5907,-0.5925,-0.5934,-0.5987,-0.5961,-0.5962,-0.5977,-0.5975,-0.5995,-0.5997,-0.5999,-0.6039,-0.6046,-0.6069,-0.6031,-0.6143,-0.6146,-0.6148,-0.6173,-0.6179,-0.6183,0,0,0,0,0,-0.5877,-0.5914,-0.5908,-0.5916,-0.5956,-0.5988,-0.5993,-0.5994,-0.5979,-0.5997,-0.6005,-0.5996,-0.6062,-0.6043,-0.6051,-0.6075,-0.6141,-0.6145,-0.6148,-0.617,-0.6177,-0.6183,0,0,0,0,0,0,-0.5899,-0.5916,-0.591,-0.5953,-0.5969,-0.5985,-0.6008,-0.6001,-0.6023,-0.602,-0.602,-0.6025,-0.6064,-0.6073,-0.6052,-0.6121,-0.6099,-0.6105,-0.6114,-0.612,-0.6126,-0.6123,-0.6033,0,0,0,0,0,-0.5909,-0.5934,-0.5947,-0.5984,-0.5992,-0.5998,-0.6013,-0.6012,-0.6029,-0.6036,-0.6047,-0.6064,-0.6088,-0.6105,-0.6128,-0.6173,-0.6178,-0.6194,-0.6199,-0.6203,-0.6208,-0.6233,-0.6241,-0.6161,-0.6161,-0.6161,0,0,-0.593,-0.5942,-0.5958,-0.5988,-0.6001,-0.6027,-0.6004,-0.6033,-0.6052,-0.604,-0.6077,-0.6085,-0.6104,-0.6146,-0.6165,-0.6155,-0.6231,-0.6208,-0.6211,-0.6214,-0.6237,-0.6245,-0.6252,-0.6163,-0.6163,-0.6162,0,0,-0.5981,-0.5992,-0.6024,-0.6037,-0.6055,-0.6059,-0.6067,-0.6084,-0.6089,-0.6125,-0.6116,-0.6139,-0.6181,-0.6195,-0.6208,-0.6263,-0.6256,-0.627,-0.6299,-0.6323,-0.6329,-0.6335,-0.6355,-0.6362,-0.6275,-0.6275,-0.6275,0,-0.6005,-0.6043,-0.6042,-0.6071,-0.6084,-0.6073,-0.6106,-0.6118,-0.6144,-0.6154,-0.6141,-0.6193,-0.6206,-0.6251,-0.6264,-0.6274,-0.6283,-0.6269,-0.6328,-0.6334,-0.6339,-0.6358,-0.6366,-0.6277,-0.6276,-0.6276,-0.6276,0,-0.6072,-0.6098,-0.6122,-0.6146,-0.6162,-0.6193,-0.6196,-0.6213,-0.621,-0.6215,-0.6252,-0.6266,-0.6291,-0.6302,-0.63,-0.6346,-0.6339,-0.6328,-0.6307,-0.6348,-0.6366,-0.6374,-0.6279,-0.6278,-0.6278,-0.6277,0,0,-0.6141,-0.6162,-0.6171,-0.6181,-0.62,-0.6221,-0.625,-0.6275,-0.6289,-0.6307,-0.6332,-0.6367,-0.6356,-0.637,-0.6369,-0.639,-0.6433,-0.6376,-0.6376,-0.6387,-0.6486,-0.6496,-0.6504,-0.6428,-0.6429,-0.643,-0.6485,0,-0.6194,-0.6246,-0.6245,-0.6293,-0.6318,-0.6307,-0.6332,-0.6347,-0.6352,-0.6374,-0.6379,-0.6405,-0.6388,-0.6396,-0.6416,-0.6424,-0.6453,-0.642,-0.6452,-0.6454,-0.6449,-0.6514,-0.6524,-0.6575,-0.6492,-0.6493,-0.6494,0,-0.6264,-0.6283,-0.6334,-0.6348,-0.6358,-0.6382,-0.6404,-0.6424,-0.644,-0.6442,-0.6457,-0.6453,-0.6483,-0.6459,-0.6501,-0.6478,-0.6491,-0.6497,-0.6499,-0.6503,-0.6477,-0.6521,-0.6591,-0.66,-0.6505,-0.6504,-0.6503,0,-0.631,-0.6348,-0.6383,-0.6393,-0.641,-0.6427,-0.6435,-0.6449,-0.6464,-0.6483,-0.6492,-0.6514,-0.6527,-0.6545,-0.6546,-0.6529,-0.6588,-0.6565,-0.6592,-0.6592,-0.6606,-0.6606,-0.6681,-0.6613,-0.6612,-0.6612,-0.6612,0,-0.6371,-0.6403,-0.6404,-0.6426,-0.6461,-0.6459,-0.6494,-0.65,-0.6513,-0.6536,-0.6527,-0.6549,-0.6549,-0.6571,-0.6572,-0.6607,-0.6613,-0.6616,-0.6616,-0.6617,-0.6617,-0.6627,-0.6624,-0.6614,-0.6614,-0.6613,-0.6613,0,-0.643,-0.6432,-0.6469,-0.6482,-0.6486,-0.6511,-0.6523,-0.6543,-0.6547,-0.6576,-0.6583,-0.6589,-0.6614,-0.6617,-0.6647,-0.6647,-0.669,-0.6685,-0.6684,-0.6684,-0.6711,-0.6709,-0.6797,-0.6808,-0.6731,-0.6732,-0.6732,0,-0.6469,-0.6493,-0.6508,-0.6523,-0.6531,-0.6555,-0.6569,-0.6567,-0.6583,-0.6602,-0.662,-0.6645,-0.6665,-0.6706,-0.6713,-0.6736,-0.6733,-0.6762,-0.6736,-0.6737,-0.6734,-0.6734,-0.6736,-0.6767,-0.6768,-0.6769,-0.677,0,-0.654,-0.6539,-0.656,-0.6581,-0.6598,-0.6614,-0.663,-0.6642,-0.6642,-0.666,-0.6685,-0.67,-0.673,-0.6755,-0.6777,-0.6785,-0.6778,-0.6777,-0.6785,-0.6787,-0.6786,-0.6788,-0.6699,-0.6776,-0.6775,-0.6775,-0.6774,-0.6774,-0.6591,-0.6611,-0.6625,-0.6648,-0.6659,-0.6673,-0.6693,-0.6698,-0.672,-0.6744,-0.6741,-0.6769,-0.6784,-0.6812,-0.6822,-0.6845,-0.6835,-0.6846,-0.6849,-0.6852,-0.6855,-0.6781,-0.6849,-0.6848,-0.6848,-0.6848,-0.6848,0,-0.6661,-0.6669,-0.669,-0.6711,-0.673,-0.6719,-0.6735,-0.6751,-0.6776,-0.679,-0.6809,-0.6838,-0.6862,-0.687,-0.6893,-0.6909,-0.6906,-0.6915,-0.6915,-0.6917,-0.6862,-0.6854,-0.6917,-0.6917,-0.6917,-0.6917,-0.6917,-0.6917,-0.67,-0.6735,-0.6736,-0.6775,-0.6783,-0.681,-0.682,-0.6833,-0.6844,-0.6877,-0.6896,-0.69,-0.6912,-0.6935,-0.6956,-0.6958,-0.6967,-0.6978,-0.6979,-0.6928,-0.6921,-0.6914,-0.6906,-0.698,-0.698,-0.7032,-0.7032,-0.7033]},{"header":{"parameterUnit":"m.s-1","parameterCategory":1,"la1":30.2991,"la2":30.254,"lo1":-89.0895,"lo2":-89.0444,"dy":0.0017,"dx":0.0017,"nx":28,"ny":28,"refTime":"2025-11-06T09:00:00:Z","depth":0,"parameterNumber":3,"parameterNumberName":"V-component_of_WINDS"},"data":[0,0,0,0,0,0,0,0,0,0,0,0,0,0,0,0,0,0,0,0,0,0,0,0,0,0,0,0,0,0,0,0,0,0,0,0,0,0,0,0,0,0,0,0,0,0,0,0,0,0,0,0,0,0,0,0,0,0,-2.8193,-2.8194,0,-2.83,-2.8301,-2.8302,-2.8291,-2.8289,-2.8287,-2.8286,-2.8392,-2.8397,-2.8401,0,0,0,0,0,0,0,0,0,0,0,0,0,-2.7976,-2.798,-2.8193,-2.8194,-2.8196,-2.83,-2.8301,-2.8303,-2.8291,-2.8289,-2.8287,-2.8285,-2.8391,-2.8396,-2.8401,0,0,0,0,0,0,0,0,0,0,0,0,0,-2.8075,-2.7981,-2.8193,-2.8202,-2.8204,-2.8299,-2.8301,-2.8303,-2.8291,-2.8289,-2.8286,-2.8284,-2.8389,-2.8395,-2.8402,-2.8493,0,0,-2.8422,-2.8425,0,0,0,0,0,0,0,0,-2.8069,-2.8083,-2.82,-2.8202,-2.8204,-2.8279,-2.8264,-2.8367,-2.8292,-2.8258,-2.8286,-2.8283,-2.8357,-2.8366,-2.8391,-2.8498,-2.8503,-2.8423,-2.8427,-2.843,-2.8432,0,0,0,0,0,0,0,-2.8063,-2.8078,-2.8235,-2.8201,-2.8204,-2.82,-2.8212,-2.8283,-2.832,-2.8261,-2.826,-2.8273,-2.8357,-2.8385,-2.8394,-2.8505,-2.8423,-2.8428,-2.8433,-2.8435,-2.8692,-2.8695,0,0,0,0,0,0,-2.8054,-2.8073,-2.8232,-2.8238,-2.8129,-2.8206,-2.8219,-2.8258,-2.8319,-2.8326,-2.8275,-2.8272,-2.8375,-2.8386,-2.8397,-2.8508,-2.843,-2.8436,-2.844,-2.8689,-2.8693,-2.8696,0,0,0,0,0,0,-2.8049,-2.8068,-2.8227,-2.8155,-2.8175,-2.8213,-2.8256,-2.8261,-2.8289,-2.833,-2.8337,-2.8297,-2.8373,-2.8388,-2.847,-2.8512,-2.8439,-2.8445,-2.8686,-2.869,-2.8694,-2.8731,0,0,0,0,0,0,-2.8043,-2.8066,-2.8102,-2.8156,-2.8179,-2.8299,-2.8259,-2.8265,-2.8301,-2.8298,-2.8352,-2.8359,-2.8372,-2.846,-2.8476,-2.852,-2.845,-2.8682,-2.8688,-2.8693,-2.8727,-2.8736,-2.8745,0,0,0,0,0,-2.8035,-2.8107,-2.8104,-2.8123,-2.8225,-2.8302,-2.8315,-2.833,-2.8304,-2.834,-2.8367,-2.8357,-2.8505,-2.8469,-2.8487,-2.8533,-2.868,-2.8686,-2.8693,-2.8722,-2.8734,-2.8745,0,0,0,0,0,0,-2.8056,-2.8115,-2.8111,-2.8204,-2.8248,-2.8299,-2.8345,-2.8342,-2.8393,-2.8388,-2.8404,-2.8416,-2.8499,-2.8524,-2.8483,-2.8625,-2.8589,-2.8599,-2.8605,-2.8617,-2.8626,-2.8618,-2.8455,0,0,0,0,0,-2.8071,-2.813,-2.8178,-2.8254,-2.8277,-2.8307,-2.8341,-2.8349,-2.8395,-2.8413,-2.8446,-2.849,-2.8546,-2.8583,-2.8637,-2.873,-2.8742,-2.8771,-2.878,-2.8787,-2.8796,-2.8847,-2.886,-2.8717,-2.8717,-2.8717,0,0,-2.8103,-2.8143,-2.8178,-2.8259,-2.8295,-2.8354,-2.8323,-2.8387,-2.843,-2.8422,-2.8502,-2.8528,-2.8578,-2.8666,-2.8706,-2.8689,-2.8838,-2.8796,-2.8801,-2.8806,-2.8855,-2.8868,-2.888,-2.8721,-2.8721,-2.872,0,0,-2.8192,-2.8228,-2.8296,-2.8333,-2.8387,-2.8407,-2.8423,-2.8475,-2.8493,-2.8573,-2.8568,-2.862,-2.8717,-2.8753,-2.8784,-2.8888,-2.8881,-2.8905,-2.8952,-2.9002,-2.9013,-2.9023,-2.906,-2.9073,-2.8913,-2.8913,-2.8913,0,-2.8225,-2.8315,-2.8331,-2.8396,-2.8432,-2.8429,-2.8497,-2.8531,-2.86,-2.8624,-2.8605,-2.8726,-2.876,-2.8856,-2.8882,-2.8907,-2.8926,-2.8898,-2.901,-2.9021,-2.903,-2.9065,-2.9079,-2.8916,-2.8916,-2.8915,-2.8915,0,-2.8353,-2.8415,-2.8463,-2.8531,-2.8572,-2.8638,-2.8664,-2.8703,-2.8708,-2.873,-2.8812,-2.8852,-2.8914,-2.8938,-2.8942,-2.9035,-2.9023,-2.9007,-2.8971,-2.9046,-2.9079,-2.9093,-2.892,-2.8919,-2.8918,-2.8917,0,0,-2.8456,-2.8533,-2.8551,-2.8581,-2.8641,-2.8689,-2.8755,-2.8818,-2.8851,-2.8899,-2.8954,-2.9037,-2.9022,-2.9057,-2.9066,-2.911,-2.9189,-2.9088,-2.909,-2.9105,-2.9293,-2.9305,-2.932,-2.9185,-2.9188,-2.919,-2.9289,0,-2.8551,-2.8669,-2.8686,-2.879,-2.8847,-2.8846,-2.8903,-2.8946,-2.8968,-2.902,-2.9044,-2.9102,-2.9079,-2.91,-2.9143,-2.917,-2.9227,-2.9163,-2.9236,-2.9238,-2.9223,-2.9337,-2.935,-2.9441,-2.9302,-2.9304,-2.9306,0,-2.8676,-2.8729,-2.8839,-2.8892,-2.8916,-2.8968,-2.9027,-2.9076,-2.9124,-2.9137,-2.9177,-2.9181,-2.9249,-2.9211,-2.9304,-2.926,-2.9291,-2.9309,-2.9313,-2.9319,-2.9276,-2.9347,-2.9471,-2.9484,-2.9326,-2.9325,-2.9323,0,-2.8741,-2.8839,-2.8917,-2.8944,-2.9007,-2.9044,-2.9071,-2.9117,-2.9154,-2.9205,-2.9228,-2.9286,-2.9318,-2.9362,-2.9381,-2.9351,-2.9473,-2.9436,-2.9485,-2.9484,-2.951,-2.9508,-2.964,-2.9531,-2.953,-2.953,-2.953,0,-2.8844,-2.8911,-2.8947,-2.8995,-2.9071,-2.9089,-2.9163,-2.9189,-2.9231,-2.9283,-2.9285,-2.9334,-2.9357,-2.9409,-2.9424,-2.9499,-2.9513,-2.9525,-2.9528,-2.9525,-2.9523,-2.9545,-2.9538,-2.9534,-2.9533,-2.9532,-2.9532,0,-2.8928,-2.8955,-2.9041,-2.9094,-2.9109,-2.9162,-2.9208,-2.9254,-2.9276,-2.9343,-2.936,-2.9395,-2.9457,-2.948,-2.9555,-2.9566,-2.9652,-2.965,-2.9636,-2.9637,-2.9684,-2.9679,-2.9834,-2.9855,-2.9732,-2.9733,-2.9734,0,-2.8992,-2.9044,-2.9104,-2.914,-2.9169,-2.9227,-2.9265,-2.9285,-2.9324,-2.9384,-2.9423,-2.9485,-2.9536,-2.9635,-2.9666,-2.9724,-2.9723,-2.9773,-2.9731,-2.9726,-2.9723,-2.972,-2.9725,-2.9781,-2.9782,-2.9783,-2.9784,0,-2.9102,-2.9113,-2.9168,-2.9228,-2.9273,-2.9321,-2.9367,-2.9397,-2.9424,-2.9468,-2.9532,-2.9571,-2.9649,-2.971,-2.977,-2.9798,-2.9795,-2.9797,-2.9811,-2.9808,-2.9797,-2.9803,-2.9657,-2.9793,-2.9792,-2.9791,-2.9791,-2.979,-2.9178,-2.9224,-2.9274,-2.9335,-2.9372,-2.9416,-2.9462,-2.9491,-2.9545,-2.9611,-2.9619,-2.9688,-2.9735,-2.9815,-2.9845,-2.9899,-2.9885,-2.9906,-2.9911,-2.9916,-2.9919,-2.979,-2.991,-2.9909,-2.9909,-2.9909,-2.9909,0,-2.9288,-2.932,-2.9376,-2.9442,-2.949,-2.9485,-2.9536,-2.9576,-2.9637,-2.9682,-2.9732,-2.9806,-2.9866,-2.9903,-2.9963,-2.9998,-2.9999,-3.0013,-3.0011,-3.0017,-2.9928,-2.9909,-3.0012,-3.0012,-3.0012,-3.0012,-3.0012,-3.0012,-2.9351,-2.9429,-2.9446,-2.9542,-2.9574,-2.9642,-2.9672,-2.9712,-2.9748,-2.983,-2.9881,-2.9905,-2.9946,-3.0009,-3.0064,-3.0073,-3.0094,-3.011,-3.0118,-3.0034,-3.0023,-3.0013,-2.9996,-3.0115,-3.0115,-3.0203,-3.0204,-3.0204]}]]